Location: Walsall
(52.5862°N, 1.9829°W)
Time: 09:36:18
(UTC+01:00)

N. Korean satellite - Visible Passes

Search period start: 03 October 2022 00:00
Search period end: 13 October 2022 00:00
Orbit: 426 x 468 km, 97.3° (Epoch: 02 October)

Date Brightness Start Highest point End Pass type
(mag) Time Alt. Az. Time Alt. Az. Time Alt. Az.
03 Oct 7.9 06:11:33 10° NNE 06:14:40 40° E 06:17:46 10° S visible
04 Oct 9.5 05:36:21 10° NE 05:38:33 16° E 05:40:42 10° SE visible
05 Oct 6.6 06:32:15 10° NNE 06:35:32 74° ESE 06:38:47 10° S visible
06 Oct 8.7 05:56:32 10° NE 05:59:24 27° E 06:02:14 10° SSE visible
07 Oct 9.9 05:21:54 10° ENE 05:23:02 11° E 05:24:10 10° ESE visible
08 Oct 7.5 06:16:47 10° NNE 06:19:58 46° E 06:23:09 10° S visible
09 Oct 9.4 05:41:12 10° NE 05:43:36 19° E 05:46:00 10° SE visible
10 Oct 6.4 06:36:59 10° NNE 06:40:17 84° ESE 06:43:33 10° SSW visible
11 Oct 8.5 06:00:56 10° NNE 06:03:54 30° E 06:06:51 10° SSE visible
12 Oct 9.8 05:25:46 10° ENE 05:27:18 13° E 05:28:49 10° ESE visible
